Temperature
22 21 20 20 19 19 20 20 21 21 21 22 22 21 20 19 20 20 20 21 21 21 20 20 20 20 20 20 20 20 20 20 20 20 20 19 19 19 19 19 19 19 19 19 19 19 19 19 19
22 21 20 20 19 20 20 20 21 21 22 22 22 21 20 19 19 20 20 20 20 20 20 20 20 20 20 20 20 20 20 20 20 19 19 19 19 19 19 19 19 19 19 19 19 19 19 19 19
22 21 21 19 20 20 21 21 21 22 22 22 21 20 19 19 19 20 20 20 20 20 20 20 20 20 20 20 20 20 20 20 20 19 19 19 19 19 19 19 19 19 19 19 19 19 18 18 18
22 22 22 19 20 20 20 20 21 22 22 21 21 20 19 18 19 20 20 20 20 20 20 20 20 20 20 20 20 20 19 20 19 19 19 19 19 19 19 19 19 19 19 19 19 19 18 18 18
23 22 20 20 20 20 19 20 21 20 20 20 20 19 18 18 19 20 20 20 19 19 19 19 19 19 19 19 19 19 19 19 19 19 19 19 19 19 19 19 19 19 19 19 19 19 18 18 18
23 21 20 20 20 19 19 19 20 19 19 19 19 18 18 18 19 19 19 19 19 19 19 19 18 19 19 19 19 19 19 19 19 19 19 19 19 19 19 19 19 19 19 19 19 19 18 18 18
23 20 20 20 20 20 19 19 18 18 18 18 18 18 18 18 18 19 19 19 18 18 18 18 18 18 18 18 18 18 19 19 19 19 19 19 19 19 19 19 19 19 19 19 19 19 18 18 18
24 19 20 20 20 20 19 19 18 18 18 18 18 17 17 17 18 18 18 18 18 18 18 18 18 18 18 18 18 18 18 18 18 18 18 18 19 19 19 19 19 19 19 19 19 19 18 18 18
24 19 20 20 20 19 18 19 18 18 18 17 17 17 17 17 17 18 18 18 17 17 17 17 18 18 18 18 18 18 18 18 18 18 18 18 18 18 18 18 19 19 19 19 18 18 18 18 18
23 20 21 20 19 18 18 18 18 18 17 17 17 17 17 17 17 18 17 17 17 17 17 17 17 17 17 17 18 18 18 18 18 18 18 18 18 18 18 18 18 18 18 18 18 18 18 18 18
22 20 20 19 19 18 18 18 18 18 16 17 17 17 17 17 17 17 17 17 17 17 17 17 17 17 17 17 17 18 18 18 18 17 18 18 18 18 18 18 18 18 18 18 18 18 18 18 18
20 19 20 19 19 19 18 18 17 17 17 17 17 17 17 17 17 16 16 16 16 16 16 16 16 17 17 17 17 17 17 17 17 17 17 17 17 17 18 18 18 18 18 18 18 18 18 18 18
20 19 19 19 19 18 18 17 17 17 17 17 17 17 17 17 16 16 16 16 16 16 16 16 16 16 16 16 16 16 16 17 17 17 17 17 17 17 17 17 17 18 18 18 18 18 18 18 18
19 19 18 19 19 18 17 17 17 16 17 17 17 17 16 16 16 16 16 16 15 15 15 15 15 15 15 15 15 16 16 16 16 16 17 17 17 17 17 17 17 17 18 18 18 18 18 18 18
20 18 18 18 18 18 18 17 16 16 17 16 16 16 16 16 16 15 15 15 15 14 14 14 15 15 15 15 15 15 15 16 16 16 16 16 17 17 17 17 17 17 17 17 18 18 18 18 18
20 18 18 18 18 18 18 17 16 16 17 16 16 16 16 15 15 15 15 14 14 14 14 14 14 14 14 14 14 14 15 15 15 15 16 16 16 16 17 17 17 17 17 17 17 17 17 18 18
19 19 19 18 18 18 17 16 16 16 16 15 15 15 15 15 15 15 14 14 14 13 13 13 13 14 14 14 14 14 14 14 14 15 15 15 16 16 16 16 17 17 17 17 17 17 17 17 17
20 20 19 18 18 17 16 16 15 16 16 15 15 15 15 15 15 14 14 14 13 13 13 13 13 13 13 13 14 14 14 14 14 14 14 15 15 15 16 16 16 16 17 17 17 17 17 17 17
21 20 19 18 18 17 16 15 15 15 15 15 15 15 15 15 14 14 14 13 13 13 13 13 13 13 13 13 13 13 14 14 14 14 14 14 14 15 15 15 16 16 16 16 16 16 16 17 17
19 18 18 18 17 16 15 15 15 15 15 15 15 15 15 15 14 14 14 13 13 13 13 12 12 13 13 13 13 13 13 13 13 13 13 14 14 14 15 15 15 15 15 16 16 16 16 16 16
19 18 18 18 16 15 15 15 15 15 15 15 15 15 15 15 14 14 14 13 13 13 12 12 12 12 12 12 12 13 13 13 13 13 13 13 13 14 14 14 15 15 15 15 16 16 16 16 16
19 19 19 18 16 15 16 14 14 13 14 14 15 15 15 15 14 14 14 13 13 13 12 12 12 12 12 12 12 12 12 12 12 12 13 13 13 13 14 14 14 14 15 15 15 15 15 16 16
19 18 18 17 16 15 15 14 14 13 13 13 14 15 15 15 15 14 14 13 13 13 12 12 12 12 12 12 12 12 12 12 12 12 12 13 13 13 13 13 14 14 14 14 15 15 15 15 15
18 16 15 13 14 15 15 14 14 12 13 13 14 15 15 15 15 14 14 14 13 13 12 12 12 12 12 12 12 12 12 12 12 12 12 13 13 13 13 13 13 13 14 14 14 15 15 15 15
16 15 14 15 14 14 15 14 14 15 13 14 14 15 15 15 15 15 14 14 14 13 13 12 12 12 11 11 11 12 11 11 12 12 12 12 12 12 13 13 13 13 13 14 14 14 15 15 15
16 15 15 16 15 14 15 14 14 15 15 15 15 15 15 15 15 15 15 14 14 13 13 12 12 12 11 11 11 11 11 11 11 11 11 12 12 12 12 12 13 13 13 13 14 14 14 14 15
17 14 14 13 14 14 14 14 14 15 14 14 15 15 15 15 15 15 15 14 14 14 13 12 12 12 11 11 11 11 11 11 11 11 11 11 12 12 12 12 12 13 13 13 13 13 14 14 14
17 13 12 13 14 14 14 14 14 15 14 13 13 14 15 15 15 15 15 15 14 14 13 13 12 12 12 11 11 11 11 11 11 11 11 11 11 11 12 12 12 12 12 13 13 13 13 14 14
16 14 12 11 12 13 14 14 14 15 14 13 14 15 16 16 16 16 15 15 15 14 14 13 13 12 12 12 11 11 11 11 11 11 11 11 11 11 11 12 12 12 12 12 13 13 13 13 13
17 16 12 14 13 11 12 13 15 14 14 15 15 16 16 16 16 16 15 15 15 15 14 14 13 13 12 12 11 11 11 11 11 11 11 11 11 11 11 11 12 12 12 12 12 12 13 13 13
Wind_Speed
10 8 3 3 4 5 5 7 4 5 4 3 5 6 6 4 2 1 2 5 6 6 8 10 10 9 9 9 9 9 9 8 8 8 8 8 8 7 7 6 5 5 5 4 4 4 4 4 4
8 5 2 4 5 4 5 6 6 5 2 1 5 6 7 6 3 2 2 4 6 8 8 9 10 9 9 9 9 9 9 8 8 8 8 7 7 7 7 6 5 5 5 4 4 4 4 3 4
7 2 3 4 4 3 2 4 3 4 8 5 5 6 5 5 5 2 2 5 5 6 7 8 10 10 9 9 9 9 9 9 8 8 8 7 7 7 6 6 6 5 5 5 4 4 4 3 3
4 3 4 6 5 2 2 4 5 4 7 9 4 6 5 6 6 3 2 5 5 3 4 6 10 10 10 10 10 9 9 9 9 8 8 8 7 7 7 6 6 5 5 5 4 4 4 3 2
3 4 6 5 4 3 4 6 7 6 5 7 6 5 5 8 10 8 6 5 3 2 2 3 8 9 9 10 10 10 10 10 10 9 9 9 8 8 7 7 6 6 6 5 5 4 4 4 3
4 4 5 3 2 2 3 6 5 7 5 6 6 4 3 8 11 9 8 7 6 4 4 4 6 7 9 10 10 11 11 11 11 10 10 10 10 9 8 8 7 7 6 6 5 5 5 5 3
4 4 4 4 2 2 2 3 5 5 6 7 6 4 3 8 9 8 10 10 9 8 7 7 8 7 7 8 10 11 11 12 12 12 11 11 11 10 10 9 8 8 7 7 6 6 6 5 4
5 5 4 3 4 2 2 3 3 6 4 5 5 5 4 6 6 7 9 10 9 8 6 7 8 8 9 9 9 10 11 12 12 12 12 12 12 12 11 10 10 9 9 8 8 7 7 6 5
4 5 3 4 5 3 2 3 3 3 5 5 6 5 4 6 6 9 9 9 8 8 6 6 7 8 9 8 8 9 10 9 11 12 13 13 11 11 11 11 11 11 11 10 9 9 8 7 6
5 4 3 2 5 6 3 3 3 4 5 5 5 7 6 7 8 10 9 8 8 7 6 5 5 6 8 7 7 7 7 7 8 9 9 9 10 10 11 11 13 13 12 11 11 10 9 7 4
4 5 4 4 5 6 5 3 3 5 5 3 4 4 6 7 8 8 7 6 6 6 7 7 5 6 6 5 6 6 6 6 7 8 8 8 8 8 9 8 9 10 11 10 9 9 7 5 4
6 5 5 5 5 4 5 5 5 5 4 3 4 4 5 8 8 7 7 6 6 7 7 7 6 6 6 6 5 5 4 4 4 6 8 6 4 4 5 5 7 7 7 7 7 6 6 6 6
5 4 5 8 10 7 7 6 6 4 4 6 7 8 8 8 6 6 5 6 6 7 8 8 7 6 6 5 4 5 4 4 5 6 6 6 3 4 3 4 5 7 7 6 5 5 5 5 5
6 8 8 7 7 4 7 4 4 3 4 6 8 7 7 7 6 6 7 7 7 8 9 8 7 6 6 5 4 4 5 6 6 5 6 5 4 3 3 4 4 5 7 7 6 5 5 4 4
7 8 6 3 3 3 6 5 2 2 5 7 6 6 6 6 6 6 6 6 7 7 8 8 7 6 7 6 5 5 6 6 5 5 6 6 5 4 3 4 4 4 6 6 5 5 4 4 4
5 6 2 3 4 3 3 2 1 2 6 6 5 5 5 4 4 5 6 6 6 7 8 8 9 9 8 7 6 5 6 6 5 6 6 6 6 5 3 3 4 4 5 4 4 4 4 4 4
3 3 4 4 5 3 4 4 2 3 6 5 3 3 3 4 5 5 6 6 7 7 7 8 8 8 9 8 6 6 5 5 5 6 5 6 6 5 3 3 3 4 3 4 4 4 4 5 5
5 4 3 4 4 4 4 3 2 3 5 4 2 1 3 4 5 6 6 7 7 7 7 7 8 8 8 7 6 5 5 4 4 4 5 7 6 6 4 3 4 3 3 4 4 4 4 4 4
5 5 3 1 3 4 4 4 3 2 3 3 1 1 3 5 6 6 6 7 7 7 8 8 9 9 8 6 6 6 6 5 5 4 6 7 7 6 4 4 4 4 4 5 5 4 5 4 3
6 5 3 3 4 3 3 1 2 2 3 4 3 3 3 5 6 6 7 6 6 7 7 8 8 9 8 6 5 4 5 4 4 4 5 7 7 6 4 4 4 4 4 5 5 4 3 4 5
4 4 4 4 4 4 4 4 4 2 1 2 3 3 4 5 6 7 7 7 7 7 8 8 8 9 8 8 5 6 4 4 4 5 5 5 7 6 5 5 4 5 5 5 6 6 6 5 5
1 0 3 5 4 0 1 4 6 5 4 4 4 4 5 6 6 7 7 8 8 7 7 7 8 8 8 7 6 7 5 5 5 5 5 7 6 6 5 5 5 5 5 6 7 7 6 6 6
3 3 4 3 4 2 1 2 7 1 6 8 7 6 7 7 7 7 7 8 7 6 6 7 7 7 7 7 7 6 6 5 5 6 7 7 6 5 5 4 4 4 5 6 7 6 7 7 7
5 6 7 6 5 1 2 4 7 4 7 6 6 7 7 7 7 7 7 7 7 6 6 6 7 7 7 8 7 7 8 8 8 9 8 7 5 5 6 5 4 4 4 6 6 7 8 9 8
7 6 4 5 4 4 2 3 8 5 7 7 7 8 8 7 7 7 8 8 8 7 7 6 7 7 8 8 8 7 7 7 7 7 7 7 6 5 7 6 5 4 5 5 6 6 7 9 9
3 6 6 3 3 5 3 5 7 4 4 4 5 6 6 7 7 7 8 7 7 7 6 6 6 6 7 7 8 7 7 5 5 6 6 6 5 6 7 6 6 6 5 5 5 5 6 6 9
4 3 5 6 2 3 6 7 7 1 2 3 5 6 7 8 8 8 7 7 6 6 6 5 6 6 7 7 7 7 7 6 7 7 6 6 6 6 8 7 7 7 6 5 4 3 4 5 6
4 8 5 4 2 3 7 6 5 6 8 8 8 8 9 8 8 8 7 6 6 5 5 4 4 5 5 6 5 5 6 6 6 6 7 8 8 7 8 8 8 7 7 6 5 3 3 3 4
4 5 5 4 4 4 4 7 6 7 8 9 10 9 9 9 8 8 7 6 6 5 4 4 4 4 5 5 5 6 6 6 6 6 7 7 7 8 8 8 8 8 8 7 6 4 4 3 3
3 5 6 4 2 4 3 7 7 7 8 8 9 9 8 8 8 7 7 6 6 6 5 5 4 4 4 4 4 5 5 6 6 7 7 7 8 8 8 8 8 8 8 8 7 6 5 4 3
Wind_Direction
154 142 118 83 53 48 24 342 349 17 49 27 41 62 74 59 47 345 346 139 140 144 165 173 172 174 175 175 175 175 173 170 169 168 168 167 165 164 163 163 163 164 164 162 159 158 150 139 123
138 134 104 65 72 55 6 350 22 25 72 87 47 53 58 46 35 50 122 157 148 153 163 174 179 181 182 182 182 181 182 180 179 179 179 179 177 176 176 175 176 174 175 173 172 170 167 157 131
143 132 94 72 73 94 33 351 23 37 39 38 51 46 50 23 355 321 218 153 147 157 166 181 186 188 190 191 191 191 191 189 189 189 189 189 188 188 188 187 185 184 184 184 184 188 188 175 149
126 60 54 64 64 37 5 339 332 3 32 24 47 54 56 20 345 321 110 130 141 141 164 194 198 198 199 201 202 202 201 200 200 201 200 200 199 199 198 198 197 194 194 197 197 204 204 197 176
78 82 62 56 38 27 15 6 18 30 42 19 35 59 32 2 6 34 60 84 86 95 156 226 219 214 214 215 215 215 213 212 213 213 212 210 210 209 208 208 207 206 207 207 209 214 217 217 206
65 70 76 74 36 32 22 10 19 26 27 19 23 64 45 4 18 27 38 53 49 36 17 332 279 248 236 230 229 229 227 225 225 225 223 220 219 217 216 216 215 215 217 217 218 222 227 229 226
109 92 111 131 116 64 50 22 30 9 30 14 359 60 32 13 17 32 43 49 53 46 29 2 348 332 302 275 257 247 243 239 236 235 232 230 228 225 223 223 222 222 224 224 226 227 232 236 238
125 100 100 136 146 135 12 59 51 26 27 9 24 52 17 359 19 44 50 49 48 43 32 17 6 3 349 329 304 284 268 258 252 247 241 237 235 233 230 228 228 229 229 230 231 232 235 240 244
91 80 141 180 162 145 67 93 80 45 53 45 47 57 34 16 30 45 44 39 36 31 15 10 6 1 349 332 325 323 308 289 273 260 252 245 239 236 237 235 232 233 235 235 235 235 237 241 247
81 119 175 147 143 133 107 86 104 74 51 48 51 44 41 40 44 48 42 32 22 10 358 360 352 351 348 342 336 332 320 311 297 279 266 255 243 235 237 237 240 238 238 239 239 238 239 239 230
84 122 121 96 109 119 113 88 60 108 59 49 70 48 39 46 43 42 32 21 6 352 352 348 341 341 339 335 335 331 324 320 314 299 287 272 254 239 236 232 242 247 245 240 240 242 233 218 209
88 64 94 115 106 96 108 110 77 67 97 91 95 86 62 52 41 32 22 6 354 353 346 341 340 340 340 338 329 325 319 311 302 295 291 279 264 245 233 228 229 231 234 228 221 216 215 215 217
87 93 63 86 86 86 87 83 95 70 83 86 80 67 59 53 40 26 17 8 1 355 345 336 334 335 334 334 326 329 317 310 304 297 289 279 265 258 246 238 232 230 228 225 217 208 206 212 219
99 95 94 82 82 87 99 82 84 92 94 81 70 60 51 46 34 21 11 3 356 349 341 333 334 337 336 328 318 311 313 308 307 304 297 286 268 257 243 239 235 232 227 224 216 204 199 211 212
97 89 74 75 84 120 106 57 48 127 97 79 63 55 49 40 34 21 359 351 344 337 336 337 338 347 336 327 319 321 313 312 307 305 306 298 283 263 244 238 239 236 232 224 211 206 199 208 215
83 96 132 201 151 147 126 166 201 117 105 88 68 52 45 24 11 357 349 344 342 340 339 339 347 343 337 330 318 314 313 310 303 304 305 299 291 276 257 242 240 241 234 217 208 203 209 218 215
93 158 196 184 176 136 145 182 186 118 118 107 85 54 31 2 350 343 339 338 338 338 335 336 338 339 335 328 320 313 311 307 303 305 303 298 295 283 259 247 245 239 224 214 219 207 202 219 220
197 196 188 189 170 120 136 162 137 115 127 127 109 40 355 342 324 322 329 333 335 334 335 335 336 338 335 330 327 324 321 314 310 306 303 303 299 289 266 246 245 234 224 220 213 209 204 209 211
148 149 153 142 109 116 150 165 181 133 129 145 170 300 323 314 307 317 325 330 334 338 341 339 340 339 343 342 341 334 329 322 319 312 313 310 303 295 272 257 244 229 225 223 214 203 208 212 177
98 119 122 80 55 95 117 240 243 202 201 205 213 250 286 305 314 318 323 329 332 330 333 336 338 336 341 339 327 309 303 302 298 305 315 312 306 297 284 254 246 231 227 227 216 200 194 202 178
69 143 161 142 72 62 84 321 247 242 201 206 226 247 271 282 295 307 316 317 324 328 330 332 330 333 337 340 336 334 332 322 332 333 327 315 311 299 281 264 250 236 223 228 221 208 202 205 197
118 30 129 129 115 308 136 288 277 234 242 240 244 258 271 281 290 298 305 311 316 317 323 326 329 332 339 346 351 351 346 336 321 319 315 316 313 307 295 276 255 245 235 232 229 219 214 205 205
147 54 78 106 121 65 39 203 291 219 249 248 241 247 261 272 281 290 295 300 307 315 323 326 332 336 342 349 351 350 344 328 321 326 329 332 329 322 315 299 281 264 249 243 236 225 216 211 206
109 71 55 51 74 346 229 181 281 233 226 235 224 235 254 269 283 291 298 306 310 317 326 333 338 334 341 347 351 354 347 341 343 344 343 339 333 333 338 320 303 287 269 255 246 234 222 218 211
67 80 33 5 8 266 261 207 253 256 227 216 212 228 248 265 277 288 300 308 310 316 324 331 337 331 336 344 348 348 345 344 346 341 342 341 340 338 339 339 324 309 289 272 257 244 234 221 216
77 120 145 198 244 291 317 249 258 271 241 214 212 226 251 267 273 278 286 293 296 303 317 324 328 325 332 339 340 343 348 348 343 341 342 342 338 330 334 336 335 327 317 301 276 254 241 230 223
111 98 149 131 168 294 292 289 305 228 248 226 231 243 255 264 274 279 287 291 293 297 303 309 311 316 325 333 336 341 348 351 347 344 346 344 342 341 345 343 342 339 336 328 311 280 255 237 224
104 139 96 104 126 301 303 291 269 263 251 242 238 241 252 266 277 284 286 285 290 284 285 300 298 302 311 327 332 338 340 344 344 348 351 348 345 346 347 350 345 341 340 337 328 309 295 257 233
118 89 99 104 141 156 295 283 231 234 240 232 233 233 241 255 268 278 286 287 289 287 280 287 299 308 316 324 329 337 338 341 346 351 347 344 343 346 349 346 344 344 344 341 339 325 328 307 269
161 154 145 144 197 165 196 270 265 248 253 232 235 236 241 251 263 274 284 292 296 293 283 278 286 293 300 312 325 332 335 342 348 347 344 344 345 344 345 345 347 346 345 343 344 338 333 325 310
Height
1527 1528 1530 1532 1534 1542 1547 1542 1536 1534 1533 1533 1532 1532 1533 1536 1539 1543 1538 1537 1540 1541 1543 1544 1546 1547 1548 1549 1550 1551 1552 1552 1552 1553 1553 1553 1554 1554 1554 1554 1555 1555 1555 1556 1556 1556 1556 1556 1556
1528 1529 1532 1532 1540 1554 1551 1541 1538 1536 1535 1534 1534 1534 1535 1538 1539 1539 1539 1539 1541 1543 1544 1545 1546 1547 1549 1549 1550 1550 1551 1551 1552 1552 1552 1553 1553 1553 1553 1554 1554 1554 1555 1555 1555 1556 1556 1556 1557
1529 1530 1532 1534 1545 1553 1550 1542 1539 1537 1536 1535 1537 1537 1539 1542 1541 1541 1541 1542 1542 1544 1545 1546 1547 1548 1549 1549 1550 1550 1551 1551 1551 1551 1551 1552 1552 1552 1552 1553 1553 1553 1554 1554 1555 1555 1556 1556 1556
1530 1532 1534 1540 1549 1548 1546 1543 1540 1538 1538 1538 1539 1541 1543 1545 1544 1544 1543 1543 1544 1545 1546 1547 1548 1548 1549 1549 1550 1550 1550 1550 1550 1550 1551 1551 1551 1551 1551 1552 1552 1552 1553 1553 1554 1554 1555 1556 1556
1531 1532 1539 1548 1549 1547 1545 1543 1542 1541 1542 1543 1542 1544 1546 1547 1546 1545 1545 1545 1545 1546 1547 1547 1548 1548 1548 1549 1549 1549 1549 1549 1549 1549 1550 1550 1550 1550 1550 1550 1551 1551 1551 1552 1553 1553 1554 1555 1556
1532 1533 1547 1554 1551 1548 1547 1546 1545 1545 1545 1545 1545 1547 1549 1549 1547 1546 1546 1546 1546 1546 1547 1547 1548 1548 1548 1548 1548 1548 1548 1548 1548 1548 1548 1548 1549 1549 1549 1549 1550 1550 1550 1551 1551 1552 1553 1554 1554
1533 1537 1547 1551 1552 1550 1549 1548 1549 1549 1548 1549 1548 1549 1551 1550 1549 1548 1547 1547 1546 1546 1546 1546 1546 1546 1546 1546 1546 1546 1546 1547 1547 1547 1547 1547 1547 1547 1548 1548 1548 1549 1549 1549 1550 1551 1551 1552 1553
1531 1537 1546 1550 1551 1551 1550 1550 1551 1551 1552 1551 1550 1551 1553 1552 1550 1549 1548 1547 1547 1547 1546 1546 1545 1545 1544 1544 1544 1544 1544 1544 1544 1544 1545 1545 1545 1545 1546 1546 1547 1547 1547 1548 1548 1549 1550 1551 1552
1531 1541 1550 1548 1549 1550 1549 1550 1552 1554 1553 1553 1553 1554 1555 1553 1552 1550 1549 1548 1548 1547 1546 1545 1544 1544 1543 1542 1541 1541 1541 1541 1541 1541 1542 1542 1542 1543 1543 1544 1545 1545 1546 1546 1547 1547 1548 1549 1550
1531 1544 1544 1543 1544 1547 1550 1551 1553 1555 1555 1555 1556 1556 1555 1554 1553 1551 1550 1549 1548 1547 1547 1545 1544 1543 1541 1540 1540 1539 1538 1538 1538 1538 1539 1539 1540 1540 1541 1541 1542 1543 1544 1544 1545 1546 1546 1547 1548
1533 1540 1542 1544 1545 1547 1549 1552 1553 1554 1557 1557 1557 1557 1556 1555 1554 1553 1551 1550 1549 1548 1546 1545 1543 1541 1540 1538 1537 1537 1536 1536 1535 1535 1535 1536 1537 1537 1538 1538 1539 1540 1541 1542 1543 1544 1544 1545 1546
1536 1541 1542 1545 1546 1548 1550 1552 1554 1555 1558 1559 1558 1558 1557 1556 1555 1554 1552 1551 1549 1547 1545 1544 1542 1540 1538 1536 1535 1534 1533 1533 1532 1532 1532 1532 1532 1533 1534 1535 1536 1537 1538 1539 1540 1541 1542 1543 1544
1538 1543 1544 1546 1547 1550 1552 1554 1555 1558 1559 1559 1559 1558 1557 1556 1556 1554 1553 1551 1549 1546 1544 1541 1539 1537 1535 1534 1532 1531 1530 1529 1529 1529 1529 1528 1529 1529 1530 1531 1532 1534 1535 1536 1538 1539 1540 1541 1542
1540 1543 1547 1549 1550 1552 1554 1556 1557 1560 1560 1560 1559 1559 1558 1557 1556 1554 1552 1550 1547 1545 1542 1539 1537 1535 1532 1531 1529 1528 1527 1526 1526 1525 1525 1525 1525 1525 1526 1527 1528 1529 1531 1533 1534 1536 1537 1538 1539
1541 1546 1550 1551 1552 1554 1555 1559 1559 1560 1560 1560 1560 1559 1558 1558 1556 1554 1552 1549 1546 1543 1540 1537 1535 1532 1530 1528 1526 1524 1523 1522 1522 1522 1521 1521 1521 1521 1522 1523 1524 1526 1527 1528 1530 1531 1533 1535 1536
1544 1550 1556 1553 1553 1554 1559 1564 1561 1560 1560 1560 1560 1559 1559 1558 1556 1554 1552 1549 1546 1542 1539 1536 1533 1530 1527 1525 1522 1520 1519 1518 1517 1517 1517 1517 1517 1517 1518 1519 1520 1521 1523 1524 1526 1527 1529 1531 1533
1549 1556 1556 1555 1552 1554 1557 1561 1560 1560 1560 1560 1560 1560 1559 1558 1556 1554 1551 1548 1545 1541 1538 1534 1531 1528 1525 1522 1519 1517 1516 1514 1513 1513 1513 1513 1513 1513 1514 1515 1516 1517 1519 1520 1521 1523 1525 1527 1529
1552 1552 1553 1555 1553 1555 1558 1560 1560 1560 1560 1560 1560 1559 1559 1557 1556 1554 1551 1548 1544 1541 1537 1533 1530 1526 1523 1520 1517 1515 1513 1511 1510 1509 1509 1509 1509 1509 1509 1510 1512 1513 1514 1515 1517 1518 1520 1522 1524
1543 1549 1554 1554 1552 1556 1559 1561 1560 1560 1560 1560 1560 1559 1558 1557 1556 1553 1551 1547 1544 1540 1536 1533 1529 1525 1522 1518 1515 1512 1510 1509 1507 1506 1505 1505 1504 1505 1505 1506 1507 1508 1509 1511 1512 1514 1515 1518 1520
1546 1553 1555 1555 1554 1557 1561 1561 1559 1559 1559 1559 1559 1558 1558 1557 1555 1553 1550 1547 1543 1540 1536 1532 1528 1525 1521 1518 1515 1512 1509 1507 1505 1504 1503 1501 1501 1500 1500 1501 1502 1503 1505 1506 1508 1509 1510 1512 1515
1549 1553 1554 1557 1559 1560 1563 1565 1561 1558 1558 1558 1558 1558 1557 1556 1554 1552 1549 1546 1543 1539 1536 1532 1529 1525 1521 1518 1515 1512 1509 1507 1504 1502 1500 1499 1498 1497 1496 1497 1497 1499 1500 1501 1503 1504 1506 1507 1510
1553 1549 1550 1555 1563 1569 1565 1576 1562 1559 1558 1557 1557 1556 1556 1555 1553 1551 1549 1546 1543 1539 1536 1532 1529 1525 1522 1518 1515 1511 1508 1506 1503 1501 1498 1497 1495 1494 1493 1493 1493 1494 1495 1496 1497 1499 1501 1502 1504
1550 1548 1551 1555 1562 1570 1569 1575 1567 1560 1559 1556 1554 1555 1554 1554 1552 1550 1548 1545 1543 1539 1536 1533 1529 1526 1522 1519 1515 1512 1509 1506 1503 1501 1498 1495 1493 1492 1490 1490 1490 1490 1490 1491 1492 1493 1495 1497 1499
1548 1553 1558 1564 1569 1577 1569 1575 1569 1562 1556 1552 1552 1552 1552 1552 1551 1549 1547 1545 1542 1539 1536 1533 1529 1526 1523 1519 1516 1513 1510 1506 1503 1500 1497 1494 1492 1490 1488 1487 1487 1486 1486 1486 1487 1488 1489 1491 1493
1551 1563 1578 1576 1584 1580 1568 1571 1566 1551 1549 1549 1549 1550 1551 1551 1550 1548 1546 1544 1541 1539 1536 1532 1529 1526 1523 1520 1517 1513 1510 1507 1504 1500 1497 1494 1491 1489 1487 1485 1484 1483 1483 1482 1482 1482 1483 1485 1486
1555 1562 1579 1583 1586 1581 1569 1570 1557 1548 1546 1546 1547 1548 1549 1549 1548 1547 1545 1543 1541 1538 1535 1532 1529 1526 1523 1520 1517 1514 1511 1507 1504 1501 1498 1495 1492 1489 1486 1484 1482 1481 1479 1478 1478 1477 1478 1479 1480
1556 1564 1565 1578 1578 1583 1576 1565 1552 1546 1546 1546 1546 1547 1547 1547 1546 1545 1544 1542 1540 1537 1535 1532 1529 1526 1524 1520 1517 1514 1511 1508 1505 1501 1498 1495 1492 1489 1486 1483 1481 1479 1477 1475 1474 1473 1473 1474 1475
1552 1561 1571 1578 1583 1586 1579 1571 1562 1548 1546 1544 1544 1544 1544 1545 1544 1544 1542 1541 1539 1536 1534 1532 1529 1526 1524 1521 1518 1515 1511 1508 1505 1502 1498 1495 1492 1489 1486 1483 1480 1478 1476 1473 1472 1471 1470 1471 1471
1557 1562 1571 1580 1580 1588 1586 1573 1548 1543 1540 1540 1540 1541 1542 1542 1542 1542 1541 1539 1537 1535 1533 1531 1529 1526 1523 1521 1518 1515 1511 1508 1505 1502 1498 1495 1492 1489 1485 1482 1479 1477 1475 1472 1470 1469 1468 1468 1468
1550 1556 1567 1575 1578 1584 1587 1574 1540 1539 1537 1537 1537 1538 1539 1540 1540 1540 1539 1537 1536 1534 1532 1530 1528 1525 1523 1520 1517 1514 1511 1508 1505 1502 1498 1495 1492 1488 1485 1482 1479 1476 1474 1472 1469 1467 1466 1466 1465